User: anonymous   Login
Location: Unspecified
(0.0000°N, 0.0000°E)
Time: 04:25:27
(UTC+00:00)
Language:

Snapshot - Orbit

View from above orbital plane
View from above orbital plane
View from above satellite
View from above satellite

Ground track
Ground track

The orbit data is extracted from the following two-line orbital elements,

1  1314U 65027A   18054.27221793 +.00000006 +00000-0 -15935-5 0  9995
2  1314 090.3076 291.7691 0028748 286.6748 201.0534 12.91752605239075
Epoch (UTC): 23 February 2018 06:31:59
Eccentricity: 0.0028748
inclination: 90.3076°
perigee height: 1272 km
apogee height: 1316 km
right ascension of ascending node: 291.7691°
argument of perigee: 286.6748°
revolutions per day: 12.91752605
mean anomaly at epoch: 201.0534°
orbit number at epoch: 23907

The dashed part of the orbit path shows where the satellite is in the earth's shadow,  

DLR